DW7220 Weather Reports


Display with metric or nautical units.
time (UTC)temp
F
wind
direction
speed
MPH
gust
MPH
rain 1hr
in
rain 24hr
in
rain mn
in
humidity
%
barometer
mb
20260507114505 71 225 0.0 1.0 0.00 0.00 0.00 93 1016.2
20260507113023 69 243 0.0 1.0 0.00 0.00 0.00 94 1016.0
20260507111545 68 243 0.0 2.0 0.00 0.00 0.00 95 1016.1
20260507110104 67 239 1.0 3.0 0.00 0.00 0.00 95 1016.0
20260507104514 67 237 0.0 0.0 0.00 0.00 0.00 95 1015.6
20260507103049 67 226 0.0 1.0 0.00 0.00 0.00 95 1015.3
20260507101503 67 248 0.0 1.0 0.00 0.00 0.00 94 1015.1
20260507100023 67 266 0.0 1.0 0.00 0.00 0.00 94 1015.0
20260507094536 67 266 0.0 0.0 0.00 0.00 0.00 94 1015.1
20260507093105 67 262 0.0 1.0 0.00 0.00 0.00 94 1014.8
20260507091523 68 232 0.0 1.0 0.00 0.00 0.00 93 1014.7
20260507090040 68 231 0.0 1.0 0.00 0.00 0.00 93 1014.5
20260507084601 68 231 0.0 1.0 0.00 0.00 0.00 93 1014.3
20260507083009 68 221 0.0 0.0 0.00 0.00 0.00 93 1014.3
20260507081528 68 221 0.0 1.0 0.00 0.00 0.00 93 1014.4
20260507080045 68 161 0.0 0.0 0.00 0.00 0.00 92 1014.3
20260507074616 69 161 0.0 0.0 0.00 0.00 0.00 92 1014.4
20260507073019 69 241 0.0 1.0 0.00 0.00 0.00 91 1014.5
20260507071535 69 241 0.0 0.0 0.00 0.00 0.00 91 1014.7
20260507070115 70 241 0.0 2.0 0.00 0.00 0.00 90 1014.9
20260507064506 70 245 1.0 3.0 0.00 0.00 0.00 89 1015.3
20260507063039 71 255 1.0 3.0 0.00 0.00 0.00 88 1015.2
20260507061547 72 261 1.0 3.0 0.00 0.00 0.00 86 1015.2
20260507060104 74 233 0.0 2.0 0.00 0.00 0.00 83 1015.4
20260507054511 75 180 0.0 3.0 0.00 0.00 0.00 80 1015.5
20260507053041 76 141 1.0 4.0 0.00 0.00 0.00 79 1015.9
20260507051604 76 127 5.0 11.0 0.00 0.00 0.00 78 1015.7
20260507050005 77 104 3.0 8.0 0.00 0.00 0.00 78 1015.8
20260507044520 77 120 6.0 10.0 0.00 0.00 0.00 78 1015.7
20260507043043 77 123 3.0 10.0 0.00 0.00 0.00 78 1015.9
20260507041603 77 127 5.0 10.0 0.00 0.00 0.00 79 1015.9
20260507040020 77 97 6.0 10.0 0.00 0.00 0.00 78 1016.0
20260507034537 77 99 4.0 9.0 0.00 0.00 0.00 78 1015.8
20260507033049 77 103 6.0 10.0 0.00 0.00 0.00 77 1015.8
20260507031628 77 93 3.0 9.0 0.00 0.00 0.00 78 1016.0
20260507030024 77 107 4.0 13.0 0.00 0.00 0.00 79 1015.9
20260507024545 77 88 4.0 10.0 0.00 0.00 0.00 79 1016.0
20260507023116 77 105 6.0 11.0 0.00 0.00 0.00 77 1015.9
20260507021512 77 140 5.0 11.0 0.00 0.00 0.00 76 1016.1
20260507020043 77 96 5.0 9.0 0.00 0.00 0.00 76 1016.1
20260507014608 78 94 6.0 9.0 0.00 0.00 0.00 76 1016.0
20260507013033 78 127 4.0 8.0 0.00 0.00 0.00 75 1016.0
20260507011522 78 116 3.0 8.0 0.00 0.00 0.00 74 1016.0
20260507010051 78 109 3.0 9.0 0.00 0.00 0.00 73 1015.9
20260507004603 78 110 4.0 8.0 0.00 0.00 0.00 72 1015.8
20260507003001 78 101 8.0 11.0 0.00 0.00 0.00 70 1015.7
20260507001532 79 81 3.0 8.0 0.00 0.00 0.00 70 1015.6
20260507000046 79 88 6.0 12.0 0.00 0.00 0.00 68 1015.6
20260506234616 79 91 5.0 12.0 0.00 0.00 0.00 65 1015.5
20260506233022 80 117 8.0 12.0 0.00 0.00 0.00 64 1015.6
20260506231545 80 84 7.0 12.0 0.00 0.00 0.00 63 1015.7
20260506230107 81 110 4.0 14.0 0.00 0.00 0.00 61 1015.7
20260506224519 81 102 4.0 14.0 0.00 0.00 0.00 62 1015.5
20260506223043 81 121 7.0 12.0 0.00 0.00 0.00 62 1015.6
20260506221612 81 133 7.0 14.0 0.00 0.00 0.00 62 1015.6
20260506220029 82 91 8.0 13.0 0.00 0.00 0.00 64 1015.6
20260506214533 81 101 8.0 16.0 0.00 0.00 0.00 64 1015.6
20260506213054 82 104 3.0 15.0 0.00 0.00 0.00 67 1015.6
20260506211612 82 56 7.0 14.0 0.00 0.00 0.00 63 1015.6
20260506210021 83 105 4.0 11.0 0.00 0.00 0.00 63 1015.7
20260506204535 82 103 8.0 12.0 0.00 0.00 0.00 64 1015.6
20260506203046 82 85 6.0 14.0 0.00 0.00 0.00 63 1015.6
20260506201606 82 94 8.0 13.0 0.00 0.00 0.00 65 1015.7
20260506200033 82 129 8.0 14.0 0.00 0.00 0.00 66 1015.8
20260506194534 82 89 8.0 14.0 0.00 0.00 0.00 63 1015.8
20260506193043 82 97 8.0 14.0 0.00 0.00 0.00 60 1015.9
20260506191538 82 77 8.0 14.0 0.00 0.00 0.00 65 1016.0
20260506190052 82 90 8.0 13.0 0.00 0.00 0.00 62 1016.3
20260506184629 83 107 4.0 12.0 0.00 0.00 0.00 63 1016.4
20260506183011 83 95 7.0 12.0 0.00 0.00 0.00 55 1016.6
20260506181523 83 103 7.0 14.0 0.00 0.00 0.00 62 1016.6
20260506180042 83 68 3.0 11.0 0.00 0.00 0.00 67 1016.7
20260506174601 82 127 5.0 13.0 0.00 0.00 0.00 66 1016.9
20260506173006 82 110 6.0 12.0 0.00 0.00 0.00 66 1016.8
20260506171534 83 77 5.0 10.0 0.00 0.00 0.00 67 1016.9
20260506170100 82 93 7.0 11.0 0.00 0.00 0.00 62 1017.0
20260506164624 82 107 7.0 12.0 0.00 0.00 0.00 63 1017.1
20260506163024 82 104 7.0 12.0 0.00 0.00 0.00 68 1017.1
20260506161545 82 122 6.0 12.0 0.00 0.00 0.00 68 1017.2
20260506160116 81 61 6.0 11.0 0.00 0.00 0.00 74 1017.2
20260506154519 81 103 6.0 12.0 0.00 0.00 0.00 71 1017.3
20260506153046 80 101 6.0 11.0 0.00 0.00 0.00 74 1017.3
20260506151617 80 104 6.0 10.0 0.00 0.00 0.00 75 1017.2
20260506150025 80 55 5.0 10.0 0.00 0.00 0.00 76 1017.3
20260506144554 79 94 5.0 10.0 0.00 0.00 0.00 78 1017.1
20260506143103 80 153 3.0 8.0 0.00 0.00 0.00 78 1017.0
20260506141613 79 103 5.0 9.0 0.00 0.00 0.00 80 1017.1
20260506140020 79 108 4.0 8.0 0.00 0.00 0.00 81 1017.0
20260506134536 78 129 3.0 10.0 0.00 0.00 0.00 82 1017.0
20260506133043 78 116 4.0 9.0 0.00 0.00 0.00 82 1016.7
20260506131559 77 104 7.0 12.0 0.00 0.00 0.00 83 1016.7
20260506130003 77 92 3.0 9.0 0.00 0.00 0.00 83 1016.7
20260506124506 77 82 3.0 7.0 0.00 0.00 0.00 84 1016.5
20260506123031 77 104 3.0 7.0 0.00 0.00 0.00 85 1016.6
20260506121558 75 110 0.0 3.0 0.00 0.00 0.00 89 1016.3
20260506120120 74 129 0.0 1.0 0.00 0.00 0.00 92 1016.3